Meteo Giornale » Osservazioni meteo Italia » Falconara

ore: 12:50 - Osservazioni Meteo Falconara
Lat. 43° 37' N Lon. 13° 22' E Alt. 12 metri s.l.m.

sereno Europe/Rome

29 °C

Sereno

Temp. 24 Ore

23 °C

29 °C

Nord

18.5 Km/h

Dew point 20 °C

Umidità 58 %

Visibilità  10 Km

Il sole sorge alle ore 06:01

Il sole tramonta alle ore 20:22

Data e Ora Cielo e Fenomeni T °C DP °C Um. % Pres. hPa Vis. km Vento km/h
Oggi h: 12:50 sereno Sereno 29 20 58 1015 10 N 18.5
Oggi h: 12:20 sereno Sereno 28 20 61 1015 10 N/NO 18.5
Oggi h: 11:50 sereno Sereno 28 20 61 1015 10 N/NO 18.5
Oggi h: 11:20 sereno Sereno 28 20 61 1015 10 N/NO 22.2
Oggi h: 10:50 poco_nuvoloso Poco Nuvoloso 28 20 61 1015 10 N/NO 22.2
Oggi h: 10:20 sereno Sereno 28 19 58 1015 10 N/NO 24
Oggi h: 09:50 sereno Sereno 27 19 61 1015 10 N/NO 20.3
Oggi h: 09:20 sereno Sereno 27 19 61 1015 10 N/NO 18.5
Oggi h: 08:50 sereno Sereno 27 18 57 1015 10 N 11.1
Oggi h: 08:20 nuvoloso Nuvoloso 26 18 61 1014 10 O/NO 11.1
Oggi h: 07:50 molto_nuvoloso Molto Nuvoloso 26 18 61 1014 10 O/NO 11.1
Oggi h: 07:20 molto_nuvoloso Molto Nuvoloso 25 18 65 1014 10 N 3.7
Oggi h: 06:50 molto_nuvoloso Molto Nuvoloso 24 18 69 1014 10 N 5.5
Oggi h: 06:20 molto_nuvoloso Molto Nuvoloso 23 18 73 1014 10 N 5.5
Oggi h: 05:50 nuvoloso Nuvoloso 24 18 69 1014 10 SO 7.4
Oggi h: 05:20 poco_nuvoloso Poco Nuvoloso 24 18 69 1014 10 SO 7.4
Oggi h: 04:50 molto_nuvoloso Molto Nuvoloso 24 18 69 1013 10 SO 7.4
Oggi h: 04:20 poco_nuvoloso Poco Nuvoloso 24 18 69 1014 10 SO 9.3
Oggi h: 03:50 molto_nuvoloso Molto Nuvoloso 24 18 69 1014 10 SO 9.3
Oggi h: 03:20 molto_nuvoloso Molto Nuvoloso 25 19 69 1014 10 N 5.5
Oggi h: 02:50 molto_nuvoloso Molto Nuvoloso 24 19 73 1014 10 SO 9.3
Oggi h: 02:20 coperto Coperto 25 20 73 1014 10 N 5.5
Oggi h: 01:50 molto_nuvoloso Molto Nuvoloso 24 20 78 1014 10 SO 9.3
Oggi h: 01:20 molto_nuvoloso Molto Nuvoloso 25 20 73 1014 10 SO 7.4
Oggi h: 00:50 sereno Sereno 24 20 78 1014 10 SO 7.4
Oggi h: 00:20 sereno Sereno 24 20 78 1014 10 N 5.5
Ieri h: 23:50 nuvoloso Nuvoloso 25 20 73 1014 10 N 5.5
Ieri h: 23:20 molto_nuvoloso Molto Nuvoloso 25 20 73 1014 10 N 3.7
Ieri h: 22:50 molto_nuvoloso Molto Nuvoloso 25 20 73 1014 10 N 5.5
Ieri h: 22:20 molto_nuvoloso Molto Nuvoloso 25 20 73 1014 10 N 3.7
Ieri h: 21:50 nuvoloso Nuvoloso 26 20 69 1014 10 N 5.5
Ieri h: 21:20 molto_nuvoloso Molto Nuvoloso 26 20 69 1013 10 N/NO 7.4
Ieri h: 20:50 molto_nuvoloso Molto Nuvoloso 26 20 69 1013 10 N 5.5
Ieri h: 20:20 molto_nuvoloso Molto Nuvoloso 26 20 69 1013 10 N 5.5
Ieri h: 19:50 nuvoloso Nuvoloso 27 20 65 1013 10 N 7.4
Ieri h: 19:20 sereno Sereno 27 20 65 1013 10 N/NO 7.4
Ieri h: 18:50 nuvoloso Nuvoloso 28 19 58 1013 10 N 11.1
Ieri h: 18:20 sereno Sereno 28 19 58 1013 10 N 11.1
Ieri h: 17:50 sereno Sereno 29 18 51 1013 10 N 11.1
Ieri h: 17:20 sereno Sereno 29 18 51 1013 10 N 14.8
Ieri h: 16:50 sereno Sereno 29 18 51 1013 10 N 14.8
Ieri h: 16:20 sereno Sereno 29 18 51 1014 10 N 14.8
Ieri h: 15:50 sereno Sereno 29 18 51 1014 10 N 16.7
Ieri h: 15:20 sereno Sereno 29 18 51 1014 10 N 18.5
Ieri h: 14:50 sereno Sereno 29 18 51 1014 10 N 18.5
Ieri h: 14:20 sereno Sereno 29 19 54 1014 10 N 20.3
Ieri h: 13:50 sereno Sereno 29 18 51 1014 10 N 22.2